This demonstration page uses our WeatherBlox Daily Observations layout. Learn more.

41.55636, -103.73856

Hourly Observations for July 4, 2016

Temp ( °F °C ) Dew Point ( °F °C ) Humidity (%) Winds ( mph kmh ) Pressure ( in mb ) Visibility ( mi km ) Precip ( " mm )
12:53 am 00:53 Clear 63 17.2 53 11.7 70 70 WNW 3 6 29.79 1009 10 16.0934 0 0
1:53 am 01:53 Clear 62 16.7 52 11.1 70 70 N 6 9 29.79 1009 10 16.0934 0 0
2:53 am 02:53 Clear 64 17.8 52 11.1 65 65 Calm 29.77 1008 10 16.0934 0 0
4:53 am 04:53 Clear 64 17.8 50 10 60 60 NNW 6 9 29.79 1009 10 16.0934 0 0
5:53 am 05:53 Sunny 59 15 51 10.6 75 75 NW 6 9 29.82 1010 10 16.0934 0 0
6:53 am 06:53 Sunny 65 18.3 52 11.1 63 63 WNW 6 9 29.82 1010 10 16.0934 0 0
7:53 am 07:53 Sunny 70 21.1 53 11.7 55 55 W 8 13 29.83 1010 10 16.0934 0 0
8:53 am 08:53 Sunny 78 25.6 55 12.8 45 45 W 6 9 29.81 1010 10 16.0934 0 0
9:53 am 09:53 Sunny 82 27.8 53 11.7 37 37 W 9 15 29.81 1009 10 16.0934 0 0
10:53 am 10:53 Sunny 86 30 52 11.1 31 31 W 8 13 29.81 1009 10 16.0934 0 0
11:53 am 11:53 Sunny 89 31.7 51 10.6 27 27 W 9 15 29.81 1010 10 16.0934 0 0
12:53 pm 12:53 Sunny 93 33.9 47 8.3 21 21 W 8 13 29.79 1009 10 16.0934 0 0
1:53 pm 13:53 Sunny 95 35 42 5.6 16 16 WNW 12 19 29.76 1008 10 16.0934 0 0
2:53 pm 14:53 Sunny 92 33.3 47 8.3 21 21 NNE 20 31 29.75 1008 10 16.0934 0 0
3:53 pm 15:53 Sunny 96 35.6 44 6.7 17 17 VRB 5 7 29.72 1007 10 16.0934 0 0
4:53 pm 16:53 Sunny 94 34.4 45 7.2 18 18 SSE 10 17 29.71 1006 10 16.0934 0 0
5:53 pm 17:53 Sunny 91 32.8 49 9.4 24 24 SSE 12 19 29.72 1007 10 16.0934 0 0
6:53 pm 18:53 Sunny 89 31.7 50 10 26 26 S 12 19 29.71 1006 10 16.0934 0 0
7:53 pm 19:53 Mostly Sunny 85 29.4 48 8.9 28 28 SW 15 24 29.72 1007 10 16.0934 0 0
8:53 pm 20:53 Clear 80 26.7 48 8.9 33 33 SSW 12 19 29.71 1006 10 16.0934 0 0
9:53 pm 21:53 Clear 77 25 47 8.3 35 35 S 5 7 29.71 1006 10 16.0934 0 0
10:53 pm 22:53 Clear 80 26.7 44 6.7 28 28 S 14 22 29.72 1006 10 16.0934 0 0
11:53 pm 23:53 Clear 77 25 46 7.8 33 33 Calm 29.72 1007 10 16.0934 0 0

Powered by AerisWeather